KLM681A EHAM-CYVR

Flight info

Callsign KLM681A
Flight time 9h 33m
Altitude 38000
Route ANDIK Z733 KONOM DCT SUTEB DCT KARLI DCT ALLOY DCT IPTON/M083F380 DCT 65N020W 65N030W 66N040W 67N050W DCT EPMAN/N0487F380 DCT YZS DCT YMM DCT YZU DCT NADPI DCT MERYT DCT BOOTH CANUC6
Aircraft B772/H-SDE2E3FGHIJ5LORVWXY/LB1D1

Departure

Time 2026-04-30 10:02
Airport Amsterdam Airport Schiphol (EHAM)

Arrival

Time 2026-04-30 19:36
Airport Vancouver International Airport (CYVR)
Time Latitude Longitude Altitude Speed Heading
2026-04-30 09:24 52.31265 4.76050 3 ft 0 kts 109°
2026-04-30 09:43 52.31270 4.76023 4 ft 3 kts 99°
2026-04-30 09:43 52.31271 4.75985 3 ft 3 kts 71°
2026-04-30 09:44 52.31259 4.75955 4 ft 3 kts 31°
2026-04-30 09:44 52.31238 4.75942 3 ft 3 kts
2026-04-30 09:44 52.31214 4.75940 3 ft 3 kts 357°
2026-04-30 09:44 52.31203 4.75941 3 ft 0 kts 356°
2026-04-30 09:50 52.31211 4.75940 3 ft 5 kts 357°
2026-04-30 09:51 52.31271 4.75936 3 ft 10 kts 357°
2026-04-30 09:51 52.31338 4.75930 3 ft 10 kts 357°
2026-04-30 09:51 52.31406 4.75930 3 ft 10 kts 12°
2026-04-30 09:51 52.31448 4.76044 3 ft 16 kts 85°
2026-04-30 09:52 52.31455 4.76205 3 ft 11 kts 87°
2026-04-30 09:52 52.31457 4.76289 3 ft 7 kts 87°
2026-04-30 09:52 52.31459 4.76347 3 ft 3 kts 86°
2026-04-30 09:52 52.31460 4.76382 3 ft 5 kts 86°
2026-04-30 09:53 52.31464 4.76481 3 ft 12 kts 86°
2026-04-30 09:53 52.31469 4.76627 3 ft 14 kts 86°
2026-04-30 09:53 52.31474 4.76789 3 ft 15 kts 87°
2026-04-30 09:53 52.31479 4.76961 3 ft 15 kts 87°
2026-04-30 09:54 52.31484 4.77106 3 ft 11 kts 85°
2026-04-30 09:54 52.31534 4.77199 3 ft 12 kts 30°
2026-04-30 09:54 52.31584 4.77318 3 ft 14 kts 62°
2026-04-30 09:54 52.31638 4.77455 3 ft 15 kts 56°
2026-04-30 09:55 52.31699 4.77606 3 ft 16 kts 53°
2026-04-30 09:55 52.31794 4.77694 2 ft 16 kts
2026-04-30 09:55 52.31892 4.77702 3 ft 13 kts
2026-04-30 09:55 52.31982 4.77722 3 ft 13 kts 18°
2026-04-30 09:56 52.32013 4.77742 3 ft 1 kts 28°
2026-04-30 09:56 52.32050 4.77790 3 ft 9 kts 40°
2026-04-30 09:56 52.32072 4.77820 3 ft 2 kts 41°
2026-04-30 09:56 52.32081 4.77835 3 ft 2 kts 43°
2026-04-30 09:57 52.32087 4.77843 3 ft 0 kts 43°
2026-04-30 09:58 52.32102 4.77865 3 ft 8 kts 43°
2026-04-30 09:59 52.32086 4.78005 3 ft 9 kts 168°
2026-04-30 09:59 52.32046 4.78008 3 ft 0 kts 184°
2026-04-30 10:01 52.32045 4.78008 3 ft 1 kts 184°
2026-04-30 10:01 52.31968 4.78001 3 ft 23 kts 183°
2026-04-30 10:01 52.31696 4.77977 3 ft 62 kts 183°
2026-04-30 10:02 52.29924 4.77834 19 ft 188 kts 185°
2026-04-30 10:02 52.28630 4.77587 739 ft 190 kts 182°
2026-04-30 10:02 52.27296 4.77452 1516 ft 189 kts 169°
2026-04-30 10:02 52.26181 4.78367 2030 ft 184 kts 123°
2026-04-30 10:03 52.25791 4.80382 2339 ft 197 kts 98°
2026-04-30 10:03 52.25668 4.82738 2567 ft 217 kts 96°
2026-04-30 10:03 52.25579 4.85240 3072 ft 225 kts 95°
2026-04-30 10:03 52.25512 4.87814 3676 ft 229 kts 95°
2026-04-30 10:04 52.25453 4.90437 4299 ft 233 kts 95°
2026-04-30 10:04 52.25396 4.93104 4893 ft 238 kts 95°
2026-04-30 10:04 52.25371 4.95819 5459 ft 240 kts 88°
2026-04-30 10:04 52.25919 4.98452 5875 ft 255 kts 62°
2026-04-30 10:05 52.27098 5.00672 6367 ft 263 kts 47°
2026-04-30 10:05 52.28516 5.02615 6393 ft 269 kts 44°
2026-04-30 10:05 52.29959 5.04513 6404 ft 267 kts 44°
2026-04-30 10:05 52.31395 5.06431 6399 ft 265 kts 45°
2026-04-30 10:06 52.32818 5.08345 6406 ft 264 kts 43°
2026-04-30 10:06 52.34439 5.09782 6409 ft 270 kts 22°
2026-04-30 10:06 52.36287 5.10542 6424 ft 279 kts 20°
2026-04-30 10:06 52.38182 5.11339 6422 ft 281 kts 20°
2026-04-30 10:07 52.40067 5.12147 6422 ft 278 kts 20°
2026-04-30 10:07 52.41937 5.12957 6803 ft 279 kts 20°
2026-04-30 10:07 52.43796 5.13765 7415 ft 278 kts 20°
2026-04-30 10:07 52.45670 5.14585 7971 ft 280 kts 20°
2026-04-30 10:08 52.47555 5.15413 8534 ft 281 kts 21°
2026-04-30 10:08 52.49446 5.16246 9081 ft 283 kts 21°
2026-04-30 10:08 52.51353 5.17087 9609 ft 284 kts 21°
2026-04-30 10:08 52.53269 5.17933 9985 ft 286 kts 21°
2026-04-30 10:09 52.55220 5.18802 10401 ft 297 kts 21°
2026-04-30 10:09 52.57263 5.19712 10525 ft 312 kts 20°
2026-04-30 10:09 52.59415 5.20669 10642 ft 328 kts 20°
2026-04-30 10:09 52.60805 5.21287 10729 ft 339 kts 20°
2026-04-30 10:10 52.63141 5.22326 10903 ft 356 kts 20°
2026-04-30 10:10 52.65564 5.23398 11336 ft 365 kts 19°
2026-04-30 10:10 52.67203 5.24123 11740 ft 369 kts 19°
2026-04-30 10:10 52.69695 5.25227 12443 ft 373 kts 19°
2026-04-30 10:11 52.72213 5.26348 13225 ft 376 kts 19°
2026-04-30 10:11 52.74760 5.27442 13987 ft 380 kts 16°
2026-04-30 10:11 52.77394 5.28150 14637 ft 387 kts 11°
2026-04-30 10:11 52.80087 5.28694 15273 ft 391 kts 11°
2026-04-30 10:12 52.82791 5.29269 15905 ft 394 kts 12°
2026-04-30 10:12 52.85511 5.29901 16542 ft 396 kts 12°
2026-04-30 10:12 52.88251 5.30572 17155 ft 399 kts 12°
2026-04-30 10:12 52.90980 5.31254 17734 ft 403 kts 13°
2026-04-30 10:13 52.93762 5.31951 18328 ft 406 kts 13°
2026-04-30 10:13 52.96564 5.32653 18886 ft 409 kts 13°
2026-04-30 10:13 52.99392 5.33360 19389 ft 412 kts 12°
2026-04-30 10:13 53.02237 5.34070 19881 ft 415 kts 12°
2026-04-30 10:14 53.05097 5.34784 20372 ft 417 kts 12°
2026-04-30 10:14 53.07978 5.35503 20849 ft 420 kts 12°
2026-04-30 10:14 53.12303 5.36584 21545 ft 424 kts 12°
2026-04-30 10:15 53.14789 5.37206 21926 ft 426 kts 12°
2026-04-30 10:15 53.17725 5.37942 22404 ft 429 kts 12°
2026-04-30 10:15 53.20690 5.38686 22853 ft 431 kts 11°
2026-04-30 10:15 53.23667 5.39434 23299 ft 434 kts 11°
2026-04-30 10:16 53.26667 5.40190 23726 ft 437 kts 11°
2026-04-30 10:16 53.29683 5.40950 24141 ft 440 kts 11°
2026-04-30 10:16 53.32719 5.41716 24526 ft 442 kts 11°
2026-04-30 10:17 53.38842 5.43265 25286 ft 446 kts 11°
2026-04-30 10:17 53.45015 5.44832 26016 ft 451 kts 11°
2026-04-30 10:17 53.48125 5.45623 26374 ft 453 kts 11°
2026-04-30 10:18 53.51253 5.46420 26735 ft 455 kts 11°
2026-04-30 10:18 53.54397 5.47222 27088 ft 458 kts 11°
2026-04-30 10:18 53.57554 5.48028 27423 ft 460 kts 11°
2026-04-30 10:19 53.63886 5.49436 28106 ft 465 kts
2026-04-30 10:19 53.67131 5.49469 28461 ft 468 kts 360°
2026-04-30 10:19 53.70388 5.49262 28766 ft 470 kts 359°
2026-04-30 10:19 53.72398 5.49124 28957 ft 472 kts 359°
2026-04-30 10:20 53.75680 5.48899 29264 ft 474 kts 359°
2026-04-30 10:20 53.82285 5.48484 29854 ft 477 kts 360°
2026-04-30 10:20 53.85626 5.48292 30137 ft 479 kts 360°
2026-04-30 10:21 53.88962 5.48107 30402 ft 481 kts 359°
2026-04-30 10:21 53.92316 5.47924 30654 ft 482 kts 359°
2026-04-30 10:21 53.95675 5.47743 30867 ft 483 kts 359°
2026-04-30 10:21 53.99034 5.47560 31149 ft 482 kts 360°
2026-04-30 10:22 54.02381 5.47378 31513 ft 480 kts 359°
2026-04-30 10:22 54.05717 5.47195 31836 ft 479 kts 359°
2026-04-30 10:22 54.09038 5.47012 32162 ft 477 kts 359°
2026-04-30 10:22 54.12365 5.46830 32469 ft 477 kts 359°
2026-04-30 10:23 54.15677 5.46648 32786 ft 475 kts 359°
2026-04-30 10:23 54.18933 5.46468 33150 ft 473 kts 359°
2026-04-30 10:23 54.22212 5.46286 33463 ft 472 kts 359°
2026-04-30 10:23 54.25498 5.46104 33768 ft 471 kts 359°
2026-04-30 10:24 54.28757 5.45923 34091 ft 469 kts 359°
2026-04-30 10:24 54.32024 5.45742 34359 ft 469 kts 359°
2026-04-30 10:24 54.35281 5.45561 34659 ft 468 kts 359°
2026-04-30 10:24 54.37256 5.45451 34786 ft 468 kts 359°
2026-04-30 10:25 54.40512 5.45270 35009 ft 467 kts 358°
2026-04-30 10:25 54.43753 5.45089 35300 ft 465 kts 358°
2026-04-30 10:25 54.46999 5.44908 35424 ft 468 kts 358°
2026-04-30 10:25 54.50265 5.44725 35488 ft 470 kts 358°
2026-04-30 10:26 54.56812 5.44357 35505 ft 470 kts 358°
2026-04-30 10:26 54.63255 5.43993 35502 ft 464 kts 358°
2026-04-30 10:27 54.69708 5.43629 35514 ft 463 kts 358°
2026-04-30 10:27 54.76157 5.43263 35512 ft 464 kts 358°
2026-04-30 10:28 54.82621 5.42895 35513 ft 464 kts 358°
2026-04-30 10:28 54.89088 5.42526 35509 ft 465 kts 358°
2026-04-30 10:29 54.95521 5.42158 35514 ft 465 kts 358°
2026-04-30 10:29 55.00144 5.41907 35508 ft 466 kts 359°
2026-04-30 10:30 55.06474 5.42053 35514 ft 466 kts
2026-04-30 10:30 55.12962 5.42387 35513 ft 466 kts
2026-04-30 10:31 55.19455 5.42709 35512 ft 467 kts
2026-04-30 10:31 55.25920 5.42995 35513 ft 467 kts
2026-04-30 10:32 55.32427 5.43271 35511 ft 468 kts
2026-04-30 10:32 55.38936 5.43545 35514 ft 468 kts
2026-04-30 10:33 55.45456 5.43822 35511 ft 468 kts
2026-04-30 10:33 55.51972 5.44101 35518 ft 468 kts
2026-04-30 10:34 55.58495 5.44381 35516 ft 469 kts
2026-04-30 10:34 55.63755 5.44608 35521 ft 471 kts
2026-04-30 10:35 55.70362 5.44893 35531 ft 478 kts
2026-04-30 10:35 55.77065 5.45183 35528 ft 484 kts
2026-04-30 10:36 55.83838 5.45478 35529 ft 489 kts
2026-04-30 10:36 55.90668 5.45777 35526 ft 492 kts
2026-04-30 10:37 55.97494 5.46076 35522 ft 494 kts
2026-04-30 10:37 56.04376 5.46379 35522 ft 495 kts
2026-04-30 10:38 56.11277 5.46684 35522 ft 495 kts
2026-04-30 10:38 56.18144 5.46988 35527 ft 494 kts
2026-04-30 10:39 56.25004 5.47293 35527 ft 489 kts
2026-04-30 10:39 56.30448 5.47536 35518 ft 486 kts
2026-04-30 10:40 56.37206 5.47839 35522 ft 484 kts
2026-04-30 10:40 56.43931 5.48140 35524 ft 483 kts
2026-04-30 10:41 56.50664 5.48444 35526 ft 484 kts
2026-04-30 10:41 56.57404 5.48748 35528 ft 485 kts
2026-04-30 10:42 56.64179 5.49055 35526 ft 487 kts
2026-04-30 10:42 56.70928 5.49363 35527 ft 488 kts
2026-04-30 10:43 56.77733 5.49674 35527 ft 489 kts
2026-04-30 10:43 56.84539 5.49986 35522 ft 489 kts
2026-04-30 10:44 56.91348 5.50300 35521 ft 490 kts
2026-04-30 10:44 56.96794 5.50339 35506 ft 489 kts 354°
2026-04-30 10:45 57.03445 5.48090 35523 ft 485 kts 343°
2026-04-30 10:45 57.09733 5.43663 35521 ft 484 kts 337°
2026-04-30 10:46 57.15952 5.38882 35525 ft 483 kts 337°
2026-04-30 10:46 57.22132 5.34159 35520 ft 484 kts 337°
2026-04-30 10:47 57.28360 5.29440 35523 ft 484 kts 337°
2026-04-30 10:47 57.34608 5.24711 35521 ft 484 kts 337°
2026-04-30 10:48 57.40850 5.19972 35522 ft 485 kts 337°
2026-04-30 10:48 57.47099 5.15207 35517 ft 485 kts 337°
2026-04-30 10:49 57.53298 5.10462 35515 ft 485 kts 337°
2026-04-30 10:49 57.57486 5.07245 35523 ft 485 kts 337°
2026-04-30 10:50 57.63776 5.02398 35518 ft 485 kts 337°
2026-04-30 10:50 57.70009 4.97579 35511 ft 485 kts 337°
2026-04-30 10:51 57.76244 4.92740 35519 ft 485 kts 337°
2026-04-30 10:51 57.82477 4.87884 35517 ft 484 kts 337°
2026-04-30 10:52 57.88702 4.83016 35506 ft 485 kts 336°
2026-04-30 10:52 57.94897 4.78153 35511 ft 485 kts 336°
2026-04-30 10:53 58.01123 4.73247 35511 ft 485 kts 336°
2026-04-30 10:53 58.07362 4.68313 35512 ft 485 kts 336°
2026-04-30 10:54 58.13590 4.63368 35513 ft 486 kts 336°
2026-04-30 10:54 58.18610 4.59369 35505 ft 486 kts 336°
2026-04-30 10:55 58.24841 4.54388 35507 ft 486 kts 336°
2026-04-30 10:55 58.31075 4.49385 35506 ft 486 kts 336°
2026-04-30 10:56 58.37311 4.44362 35506 ft 486 kts 336°
2026-04-30 10:56 58.43541 4.39324 35509 ft 486 kts 336°
2026-04-30 10:57 58.49719 4.34309 35503 ft 486 kts 336°
2026-04-30 10:57 58.55948 4.29233 35505 ft 486 kts 335°
2026-04-30 10:58 58.62180 4.24134 35504 ft 487 kts 335°
2026-04-30 10:58 58.68414 4.19015 35499 ft 487 kts 335°
2026-04-30 10:59 58.73608 4.14734 35499 ft 487 kts 335°
2026-04-30 10:59 58.78650 4.10565 35496 ft 488 kts 335°
2026-04-30 11:00 58.84887 4.05387 35498 ft 488 kts 335°
2026-04-30 11:00 58.91085 4.00225 35499 ft 488 kts 335°
2026-04-30 11:01 58.97321 3.95010 35508 ft 488 kts 335°
2026-04-30 11:01 59.03553 3.89773 35502 ft 487 kts 338°
2026-04-30 11:02 59.09754 3.84548 35492 ft 484 kts 337°
2026-04-30 11:02 59.15914 3.79337 35486 ft 481 kts 337°
2026-04-30 11:03 59.22044 3.74128 35492 ft 480 kts 337°
2026-04-30 11:04 59.31192 3.66317 35496 ft 479 kts 337°
2026-04-30 11:04 59.37309 3.61069 35485 ft 480 kts 337°
2026-04-30 11:05 59.42261 3.56805 35505 ft 479 kts 336°
2026-04-30 11:05 59.48381 3.51516 35490 ft 482 kts 336°
2026-04-30 11:06 59.54492 3.46214 35489 ft 485 kts 336°
2026-04-30 11:06 59.60690 3.40816 35488 ft 486 kts 336°
2026-04-30 11:07 59.66874 3.35405 35488 ft 487 kts 336°
2026-04-30 11:07 59.73083 3.29952 35482 ft 487 kts 336°
2026-04-30 11:08 59.79275 3.24493 35469 ft 487 kts 336°
2026-04-30 11:08 59.85468 3.19009 35487 ft 487 kts 336°
2026-04-30 11:09 59.91635 3.13527 35494 ft 485 kts 336°
2026-04-30 11:09 59.97742 3.08075 35477 ft 483 kts 336°
2026-04-30 11:10 60.01943 3.04311 35477 ft 483 kts 335°
2026-04-30 11:10 60.08068 2.98806 35477 ft 482 kts 335°
2026-04-30 11:11 60.14182 2.93288 35471 ft 482 kts 335°
2026-04-30 11:11 60.20310 2.87737 35467 ft 482 kts 335°
2026-04-30 11:12 60.26430 2.82167 35463 ft 483 kts 335°
2026-04-30 11:12 60.32556 2.76570 35464 ft 483 kts 335°
2026-04-30 11:13 60.38688 2.70944 35464 ft 484 kts 335°
2026-04-30 11:13 60.44814 2.65301 35458 ft 484 kts 335°
2026-04-30 11:14 60.50919 2.59653 35458 ft 485 kts 334°
2026-04-30 11:14 60.57079 2.53929 35456 ft 486 kts 334°
2026-04-30 11:15 60.62075 2.49270 35453 ft 486 kts 334°
2026-04-30 11:15 60.68224 2.43514 35450 ft 486 kts 334°
2026-04-30 11:16 60.74337 2.37768 35451 ft 486 kts 334°
2026-04-30 11:16 60.80491 2.31957 35444 ft 486 kts 334°
2026-04-30 11:17 60.86602 2.26164 35440 ft 486 kts 334°
2026-04-30 11:17 60.92737 2.20322 35439 ft 486 kts 334°
2026-04-30 11:18 60.98881 2.14448 35434 ft 486 kts 334°
2026-04-30 11:18 61.08070 2.05614 35426 ft 485 kts 333°
2026-04-30 11:19 61.14167 1.99721 35424 ft 486 kts 333°
2026-04-30 11:19 61.18535 1.95483 35428 ft 486 kts 333°
2026-04-30 11:20 61.24557 1.89619 35418 ft 486 kts 333°
2026-04-30 11:20 61.30681 1.83624 35419 ft 486 kts 332°
2026-04-30 11:21 61.36255 1.75797 35423 ft 483 kts 316°
2026-04-30 11:21 61.40706 1.65513 35615 ft 480 kts 306°
2026-04-30 11:22 61.42727 1.59977 35772 ft 479 kts 306°
2026-04-30 11:22 61.44739 1.54428 35956 ft 478 kts 306°
2026-04-30 11:22 61.46749 1.48897 36114 ft 477 kts 306°
2026-04-30 11:22 61.48765 1.43374 36245 ft 477 kts 306°
2026-04-30 11:23 61.52807 1.32342 36367 ft 477 kts 306°
2026-04-30 11:24 61.58877 1.15751 36404 ft 481 kts 306°
2026-04-30 11:24 61.62941 1.04573 36403 ft 483 kts 306°
2026-04-30 11:25 61.67811 0.91097 36398 ft 484 kts 306°
2026-04-30 11:26 61.75926 0.68477 36387 ft 482 kts 306°
2026-04-30 11:26 61.79935 0.57216 36394 ft 481 kts 305°
2026-04-30 11:27 61.83948 0.45888 36391 ft 480 kts 305°
2026-04-30 11:27 61.87947 0.34543 36391 ft 480 kts 305°
2026-04-30 11:28 61.93894 0.17572 36564 ft 480 kts 301°
2026-04-30 11:29 61.97889 0.06093 36456 ft 485 kts 300°
2026-04-30 11:29 62.02148 -0.08376 36447 ft 479 kts 291°
2026-04-30 11:30 62.06652 -0.27395 36442 ft 480 kts 290°
2026-04-30 11:31 62.09671 -0.40157 36441 ft 482 kts 291°
2026-04-30 11:31 62.12707 -0.52948 36439 ft 482 kts 291°
2026-04-30 11:32 62.15718 -0.65664 36435 ft 482 kts 290°
2026-04-30 11:32 62.18735 -0.78485 36428 ft 482 kts 290°
2026-04-30 11:33 62.23241 -0.97785 36442 ft 482 kts 290°
2026-04-30 11:33 62.26221 -1.10646 36432 ft 481 kts 290°
2026-04-30 11:34 62.29185 -1.23515 36415 ft 480 kts 290°
2026-04-30 11:34 62.31183 -1.32231 36416 ft 479 kts 290°
2026-04-30 11:35 62.34145 -1.45230 36420 ft 478 kts 290°
2026-04-30 11:35 62.37065 -1.58112 36415 ft 478 kts 289°
2026-04-30 11:36 62.39967 -1.70995 36402 ft 477 kts 289°
2026-04-30 11:36 62.42856 -1.83897 36405 ft 477 kts 289°
2026-04-30 11:37 62.45710 -1.96723 36401 ft 477 kts 289°
2026-04-30 11:37 62.48569 -2.09650 36399 ft 477 kts 289°
2026-04-30 11:38 62.51418 -2.22606 36450 ft 477 kts 289°
2026-04-30 11:38 62.54259 -2.35612 36395 ft 478 kts 288°
2026-04-30 11:39 62.57094 -2.48668 36389 ft 478 kts 288°
2026-04-30 11:39 62.59058 -2.57758 36387 ft 478 kts 288°
2026-04-30 11:40 62.61872 -2.70861 36379 ft 478 kts 288°
2026-04-30 11:40 62.64671 -2.83959 36376 ft 478 kts 288°
2026-04-30 11:41 62.67455 -2.97077 36400 ft 478 kts 288°
2026-04-30 11:41 62.70234 -3.10256 36374 ft 478 kts 287°
2026-04-30 11:42 62.72999 -3.23454 36367 ft 478 kts 287°
2026-04-30 11:42 62.75751 -3.36667 36359 ft 478 kts 287°
2026-04-30 11:43 62.78473 -3.49826 36379 ft 478 kts 287°
2026-04-30 11:43 62.81204 -3.63106 36354 ft 478 kts 287°
2026-04-30 11:44 62.83915 -3.76381 36372 ft 478 kts 287°
2026-04-30 11:44 62.85774 -3.85532 36356 ft 478 kts 287°
2026-04-30 11:45 62.88452 -3.98790 36336 ft 478 kts 287°
2026-04-30 11:45 62.91127 -4.12111 36340 ft 477 kts 286°
2026-04-30 11:46 62.93787 -4.25447 36334 ft 477 kts 286°
2026-04-30 11:46 62.96433 -4.38805 36326 ft 476 kts 286°
2026-04-30 11:47 62.99067 -4.52187 36357 ft 476 kts 286°
2026-04-30 11:47 63.01674 -4.65523 36322 ft 476 kts 286°
2026-04-30 11:48 63.04279 -4.78937 36318 ft 476 kts 285°
2026-04-30 11:48 63.06868 -4.92352 36314 ft 476 kts 285°
2026-04-30 11:49 63.09030 -5.03627 36312 ft 476 kts 285°
2026-04-30 11:49 63.10948 -5.13685 36301 ft 475 kts 285°
2026-04-30 11:50 63.13351 -5.26359 36298 ft 475 kts 285°
2026-04-30 11:50 63.15893 -5.39847 36302 ft 475 kts 285°
2026-04-30 11:51 63.18422 -5.53362 36293 ft 474 kts 285°
2026-04-30 11:51 63.20935 -5.66880 36292 ft 474 kts 284°
2026-04-30 11:52 63.23434 -5.80422 36292 ft 474 kts 284°
2026-04-30 11:52 63.25916 -5.93957 36281 ft 474 kts 284°
2026-04-30 11:53 63.28369 -6.07436 36283 ft 473 kts 284°
2026-04-30 11:53 63.30826 -6.21024 36316 ft 474 kts 284°
2026-04-30 11:54 63.33271 -6.34642 36281 ft 474 kts 284°
2026-04-30 11:54 63.35065 -6.44694 36261 ft 473 kts 284°
2026-04-30 11:55 63.37361 -6.57642 36254 ft 472 kts 284°
2026-04-30 11:55 63.39767 -6.71292 36254 ft 471 kts 284°
2026-04-30 11:56 63.42147 -6.84896 36251 ft 470 kts 283°
2026-04-30 11:56 63.44514 -6.98528 36251 ft 471 kts 283°
2026-04-30 11:57 63.46857 -7.12124 36236 ft 472 kts 283°
2026-04-30 11:57 63.49207 -7.25851 36240 ft 472 kts 283°
2026-04-30 11:58 63.51550 -7.39636 36228 ft 473 kts 283°
2026-04-30 11:58 63.53883 -7.53461 36227 ft 474 kts 283°
2026-04-30 11:59 63.56191 -7.67237 36221 ft 475 kts 283°
2026-04-30 11:59 63.57349 -7.74191 36084 ft 475 kts 283°
2026-04-30 11:59 63.57888 -7.77439 36066 ft 476 kts 283°
2026-04-30 12:00 63.60110 -7.90882 36046 ft 476 kts 283°
2026-04-30 12:00 63.62405 -8.04847 36054 ft 476 kts 283°
2026-04-30 12:01 63.64686 -8.18841 36043 ft 476 kts 283°
2026-04-30 12:01 63.66940 -8.32784 36033 ft 476 kts 283°
2026-04-30 12:02 63.69193 -8.46821 36036 ft 476 kts 283°
2026-04-30 12:02 63.71430 -8.60869 36031 ft 476 kts 283°
2026-04-30 12:03 63.74748 -8.81901 36020 ft 475 kts 282°
2026-04-30 12:04 63.76949 -8.95993 36022 ft 475 kts 282°
2026-04-30 12:04 63.79136 -9.10105 36021 ft 475 kts 282°
2026-04-30 12:05 63.80647 -9.19931 36025 ft 474 kts 282°
2026-04-30 12:05 63.82807 -9.34051 36007 ft 474 kts 282°
2026-04-30 12:06 63.84938 -9.48085 36009 ft 473 kts 281°
2026-04-30 12:06 63.87067 -9.62225 36006 ft 472 kts 281°
2026-04-30 12:07 63.89174 -9.76338 36013 ft 471 kts 281°
2026-04-30 12:07 63.91265 -9.90454 35999 ft 471 kts 281°
2026-04-30 12:08 63.93338 -10.04562 36000 ft 470 kts 281°
2026-04-30 12:08 63.95397 -10.18690 35996 ft 470 kts 281°
2026-04-30 12:09 63.97430 -10.32758 36002 ft 471 kts 280°
2026-04-30 12:09 63.99463 -10.46934 36034 ft 471 kts 280°
2026-04-30 12:10 64.00874 -10.56857 36001 ft 471 kts 279°
2026-04-30 12:10 64.02889 -10.71106 35991 ft 471 kts 279°
2026-04-30 12:11 64.04886 -10.85340 35991 ft 470 kts 279°
2026-04-30 12:11 64.06855 -10.99504 35987 ft 470 kts 279°
2026-04-30 12:12 64.08822 -11.13776 36008 ft 470 kts 279°
2026-04-30 12:12 64.10773 -11.28051 35988 ft 470 kts 279°
2026-04-30 12:13 64.12711 -11.42356 35977 ft 470 kts 278°
2026-04-30 12:13 64.14625 -11.56597 35978 ft 470 kts 278°
2026-04-30 12:14 64.16534 -11.70932 35980 ft 470 kts 278°
2026-04-30 12:14 64.18430 -11.85298 35966 ft 470 kts 278°
2026-04-30 12:15 64.19740 -11.95315 35998 ft 470 kts 278°
2026-04-30 12:15 64.21602 -12.09618 35977 ft 471 kts 278°
2026-04-30 12:16 64.23465 -12.24069 35961 ft 471 kts 278°
2026-04-30 12:16 64.25308 -12.38498 35961 ft 470 kts 278°
2026-04-30 12:17 64.28051 -12.60217 35959 ft 470 kts 277°
2026-04-30 12:17 64.29845 -12.74586 35959 ft 470 kts 277°
2026-04-30 12:18 64.31637 -12.89085 35964 ft 471 kts 278°
2026-04-30 12:18 64.33421 -13.03643 35962 ft 471 kts 277°
2026-04-30 12:19 64.35192 -13.18225 35952 ft 471 kts 277°
2026-04-30 12:19 64.36400 -13.28246 35959 ft 471 kts 277°
2026-04-30 12:20 64.38159 -13.42997 35966 ft 473 kts 277°
2026-04-30 12:20 64.39895 -13.57660 35948 ft 473 kts 277°
2026-04-30 12:21 64.41618 -13.72361 35965 ft 473 kts 278°
2026-04-30 12:21 64.43319 -13.87023 35944 ft 474 kts 278°
2026-04-30 12:22 64.45017 -14.01805 35927 ft 475 kts 277°
2026-04-30 12:22 64.46700 -14.16601 35932 ft 475 kts 277°
2026-04-30 12:23 64.48371 -14.31441 35928 ft 475 kts 277°
2026-04-30 12:23 64.50025 -14.46287 35925 ft 475 kts 277°
2026-04-30 12:24 64.51665 -14.61155 35947 ft 475 kts 277°
2026-04-30 12:24 64.52790 -14.71450 35922 ft 475 kts 277°
2026-04-30 12:25 64.54403 -14.86332 35916 ft 475 kts 277°
2026-04-30 12:25 64.56006 -15.01274 35940 ft 477 kts 277°
2026-04-30 12:26 64.57601 -15.16327 35918 ft 480 kts 277°
2026-04-30 12:26 64.59184 -15.31412 35901 ft 480 kts 277°
2026-04-30 12:27 64.60753 -15.46498 35925 ft 478 kts 277°
2026-04-30 12:27 64.62300 -15.61575 35922 ft 478 kts 277°
2026-04-30 12:28 64.63822 -15.76564 35915 ft 477 kts 277°
2026-04-30 12:28 64.65335 -15.91623 35911 ft 475 kts 277°
2026-04-30 12:29 64.66826 -16.06638 35910 ft 475 kts 277°
2026-04-30 12:29 64.67852 -16.17075 35907 ft 474 kts 277°
2026-04-30 12:30 64.69312 -16.32085 35910 ft 473 kts 277°
2026-04-30 12:30 64.70750 -16.47012 35952 ft 474 kts 277°
2026-04-30 12:31 64.72183 -16.62079 35907 ft 475 kts 277°
2026-04-30 12:31 64.73603 -16.77177 35897 ft 475 kts 277°
2026-04-30 12:32 64.75009 -16.92295 35899 ft 475 kts 277°
2026-04-30 12:32 64.76399 -17.07434 35889 ft 475 kts 276°
2026-04-30 12:33 64.77773 -17.22583 35890 ft 475 kts 276°
2026-04-30 12:33 64.79123 -17.37648 35883 ft 475 kts 276°
2026-04-30 12:34 64.80468 -17.52851 35903 ft 475 kts 276°
2026-04-30 12:34 64.81397 -17.63469 35897 ft 475 kts 276°
2026-04-30 12:35 64.82704 -17.78584 35888 ft 475 kts 276°
2026-04-30 12:35 64.84008 -17.93815 35886 ft 475 kts 276°
2026-04-30 12:36 64.85294 -18.09044 35897 ft 475 kts 276°
2026-04-30 12:36 64.86564 -18.24297 35881 ft 475 kts 276°
2026-04-30 12:37 64.87820 -18.39575 35882 ft 476 kts 276°
2026-04-30 12:37 64.89057 -18.54822 35881 ft 477 kts 276°
2026-04-30 12:38 64.90285 -18.70172 35886 ft 478 kts 276°
2026-04-30 12:38 64.91303 -18.83070 35886 ft 478 kts 276°
2026-04-30 12:39 64.92508 -18.98526 35877 ft 479 kts 276°
2026-04-30 12:39 64.93393 -19.10006 35876 ft 479 kts 276°
2026-04-30 12:40 64.93913 -19.16867 35981 ft 475 kts 276°
2026-04-30 12:40 64.94495 -19.24541 35921 ft 475 kts 276°
2026-04-30 12:40 64.95655 -19.39950 35878 ft 476 kts 276°
2026-04-30 12:41 64.96789 -19.55293 35872 ft 478 kts 276°
2026-04-30 12:41 64.97919 -19.70811 35863 ft 479 kts 276°
2026-04-30 12:42 64.99037 -19.86365 35858 ft 480 kts 276°
2026-04-30 12:42 65.00086 -20.01830 35859 ft 478 kts 273°
2026-04-30 12:43 65.00619 -20.17460 35866 ft 477 kts 271°
2026-04-30 12:43 65.01086 -20.33117 35848 ft 476 kts 271°
2026-04-30 12:44 65.01550 -20.48743 35847 ft 475 kts 271°
2026-04-30 12:44 65.01886 -20.60131 35849 ft 474 kts 271°
2026-04-30 12:45 65.02317 -20.75091 35842 ft 474 kts 271°
2026-04-30 12:45 65.02754 -20.90642 35851 ft 473 kts 271°
2026-04-30 12:46 65.03172 -21.06183 35847 ft 472 kts 271°
2026-04-30 12:46 65.03573 -21.21704 35838 ft 471 kts 271°
2026-04-30 12:47 65.03954 -21.37090 35840 ft 471 kts 271°
2026-04-30 12:47 65.04322 -21.52581 35850 ft 471 kts 271°
2026-04-30 12:48 65.04673 -21.68035 35877 ft 471 kts 271°
2026-04-30 12:48 65.05008 -21.83558 35832 ft 472 kts 270°
2026-04-30 12:49 65.05328 -21.99075 35831 ft 471 kts 271°
2026-04-30 12:49 65.05552 -22.10409 35830 ft 471 kts 271°
2026-04-30 12:50 65.05831 -22.25262 35827 ft 471 kts 270°
2026-04-30 12:50 65.06108 -22.40734 35831 ft 470 kts 270°
2026-04-30 12:51 65.06369 -22.56229 35831 ft 470 kts 270°
2026-04-30 12:51 65.06613 -22.71695 35816 ft 469 kts 270°
2026-04-30 12:52 65.06840 -22.87188 35818 ft 469 kts 270°
2026-04-30 12:52 65.07050 -23.02547 35813 ft 468 kts 270°
2026-04-30 12:53 65.07246 -23.17988 35817 ft 468 kts 270°
2026-04-30 12:53 65.07425 -23.33395 35813 ft 467 kts 270°
2026-04-30 12:54 65.07589 -23.48830 35826 ft 468 kts 270°
2026-04-30 12:54 65.07697 -23.59960 35816 ft 469 kts 270°
2026-04-30 12:55 65.07828 -23.75014 35801 ft 469 kts 270°
2026-04-30 12:55 65.07950 -23.90490 35805 ft 469 kts 270°
2026-04-30 12:56 65.08056 -24.05981 35801 ft 469 kts 270°
2026-04-30 12:56 65.08145 -24.21443 35792 ft 469 kts 269°
2026-04-30 12:57 65.08218 -24.36891 35792 ft 469 kts 269°
2026-04-30 12:57 65.08275 -24.52346 35787 ft 469 kts 269°
2026-04-30 12:58 65.08316 -24.67720 35780 ft 468 kts 269°
2026-04-30 12:58 65.08341 -24.83168 35786 ft 467 kts 269°
2026-04-30 12:59 65.08351 -24.98593 35771 ft 467 kts 269°
2026-04-30 12:59 65.08348 -25.09372 35773 ft 466 kts 269°
2026-04-30 13:00 65.08331 -25.24704 35779 ft 466 kts 269°
2026-04-30 13:00 65.08298 -25.40076 35783 ft 467 kts 269°
2026-04-30 13:01 65.08248 -25.55481 35760 ft 467 kts 269°
2026-04-30 13:01 65.08184 -25.70796 35766 ft 467 kts 269°
2026-04-30 13:02 65.08103 -25.86212 35772 ft 466 kts 269°
2026-04-30 13:02 65.08007 -26.01577 35761 ft 466 kts 269°
2026-04-30 13:03 65.07895 -26.16957 35768 ft 466 kts 268°
2026-04-30 13:03 65.07767 -26.32320 35774 ft 466 kts 268°
2026-04-30 13:04 65.07625 -26.47613 35758 ft 466 kts 268°
2026-04-30 13:04 65.07517 -26.58130 35765 ft 466 kts 268°
2026-04-30 13:05 65.07344 -26.73642 35752 ft 466 kts 268°
2026-04-30 13:06 65.07061 -26.96744 35762 ft 466 kts 267°
2026-04-30 13:06 65.06852 -27.12022 35763 ft 466 kts 267°
2026-04-30 13:07 65.06626 -27.27402 35791 ft 467 kts 267°
2026-04-30 13:07 65.06384 -27.42817 35765 ft 467 kts 267°
2026-04-30 13:08 65.06127 -27.58210 35757 ft 467 kts 267°
2026-04-30 13:08 65.05854 -27.73591 35759 ft 467 kts 267°
2026-04-30 13:09 65.05565 -27.88959 35764 ft 467 kts 266°
2026-04-30 13:09 65.05263 -28.04246 35756 ft 466 kts 266°
2026-04-30 13:10 65.05041 -28.14901 35747 ft 466 kts 266°
2026-04-30 13:10 65.04711 -28.30238 35746 ft 466 kts 266°
2026-04-30 13:11 65.04366 -28.45542 35764 ft 465 kts 266°
2026-04-30 13:11 65.04005 -28.60843 35760 ft 465 kts 266°
2026-04-30 13:12 65.03631 -28.76025 35759 ft 464 kts 266°
2026-04-30 13:12 65.03240 -28.91283 35759 ft 464 kts 266°
2026-04-30 13:13 65.02623 -29.14180 35744 ft 464 kts 266°
2026-04-30 13:13 65.02193 -29.29429 35045 ft 464 kts 266°
2026-04-30 13:14 65.01973 -29.37022 35864 ft 461 kts 265°
2026-04-30 13:14 65.01435 -29.55053 35774 ft 464 kts 265°
2026-04-30 13:15 65.00722 -29.78008 35759 ft 465 kts 265°
2026-04-30 13:16 65.00442 -29.93269 35756 ft 465 kts 272°
2026-04-30 13:16 65.01265 -30.08360 35747 ft 466 kts 279°
2026-04-30 13:17 65.04050 -30.30455 35757 ft 467 kts 285°
2026-04-30 13:18 65.07077 -30.52414 35756 ft 467 kts 285°
2026-04-30 13:18 65.10046 -30.74660 35811 ft 478 kts 283°
2026-04-30 13:19 65.12040 -30.89873 35752 ft 485 kts 283°
2026-04-30 13:19 65.13424 -31.00502 35758 ft 488 kts 283°
2026-04-30 13:20 65.15431 -31.16032 35751 ft 492 kts 283°
2026-04-30 13:20 65.17433 -31.31648 35751 ft 495 kts 283°
2026-04-30 13:21 65.19425 -31.47344 35742 ft 496 kts 283°
2026-04-30 13:22 65.22379 -31.70910 35737 ft 497 kts 283°
2026-04-30 13:22 65.25310 -31.94651 35730 ft 496 kts 282°
2026-04-30 13:23 65.28194 -32.18360 35731 ft 494 kts 282°
2026-04-30 13:24 65.31960 -32.49888 35721 ft 492 kts 282°
2026-04-30 13:25 65.35088 -32.76588 35729 ft 491 kts 282°
2026-04-30 13:26 65.39319 -33.13422 35718 ft 491 kts 282°
2026-04-30 13:28 65.43745 -33.52977 35711 ft 492 kts 282°
2026-04-30 13:28 65.46361 -33.76877 35715 ft 493 kts 282°
2026-04-30 13:29 65.49354 -34.04692 35705 ft 493 kts 282°
2026-04-30 13:31 65.53483 -34.43985 35698 ft 493 kts 282°
2026-04-30 13:32 65.57578 -34.84077 35680 ft 493 kts 282°
2026-04-30 13:33 65.60783 -35.16296 35678 ft 492 kts 282°
2026-04-30 13:34 65.63144 -35.40526 35679 ft 492 kts 281°
2026-04-30 13:35 65.65736 -35.67685 35692 ft 491 kts 281°
2026-04-30 13:36 65.68757 -36.00006 35678 ft 491 kts 281°
2026-04-30 13:36 65.70966 -36.24186 35317 ft 487 kts 281°
2026-04-30 13:37 65.71671 -36.31980 35600 ft 459 kts 281°
2026-04-30 13:37 65.73006 -36.46901 35589 ft 451 kts 281°
2026-04-30 13:38 65.74989 -36.69465 35673 ft 458 kts 281°
2026-04-30 13:39 65.77615 -36.99941 35708 ft 464 kts 280°
2026-04-30 13:40 65.79174 -37.18431 35693 ft 466 kts 280°
2026-04-30 13:40 65.80467 -37.33954 35693 ft 467 kts 280°
2026-04-30 13:41 65.81744 -37.49485 35664 ft 466 kts 280°
2026-04-30 13:41 65.83003 -37.65015 35619 ft 464 kts 280°
2026-04-30 13:42 65.84233 -37.80396 35641 ft 463 kts 279°
2026-04-30 13:42 65.86053 -38.03562 35643 ft 461 kts 279°
2026-04-30 13:43 65.87243 -38.18969 35643 ft 460 kts 279°
2026-04-30 13:43 65.88416 -38.34370 35695 ft 460 kts 279°
2026-04-30 13:44 65.89565 -38.49660 35700 ft 460 kts 279°
2026-04-30 13:44 65.90379 -38.60631 35694 ft 459 kts 279°
2026-04-30 13:45 65.92044 -38.83440 35757 ft 459 kts 279°
2026-04-30 13:46 65.93151 -38.98860 35768 ft 459 kts 279°
2026-04-30 13:46 65.94240 -39.14285 35830 ft 460 kts 278°
2026-04-30 13:47 65.95314 -39.29721 35829 ft 463 kts 278°
2026-04-30 13:47 65.96383 -39.45312 35821 ft 465 kts 278°
2026-04-30 13:48 65.97442 -39.61020 35856 ft 467 kts 278°
2026-04-30 13:48 65.98487 -39.76746 35855 ft 468 kts 278°
2026-04-30 13:49 65.99520 -39.92522 35861 ft 468 kts 278°
2026-04-30 13:49 66.01027 -40.08115 35898 ft 470 kts 287°
2026-04-30 13:50 66.02485 -40.18650 35890 ft 469 kts 287°
2026-04-30 13:50 66.05590 -40.41357 35936 ft 467 kts 286°
2026-04-30 13:51 66.07625 -40.56567 35948 ft 466 kts 286°
2026-04-30 13:51 66.09630 -40.71756 35955 ft 465 kts 286°
2026-04-30 13:52 66.11605 -40.86854 35956 ft 465 kts 286°
2026-04-30 13:52 66.13576 -41.02057 35951 ft 465 kts 286°
2026-04-30 13:53 66.15532 -41.17278 35996 ft 465 kts 286°
2026-04-30 13:53 66.17478 -41.32562 35998 ft 466 kts 286°
2026-04-30 13:54 66.19411 -41.47882 36019 ft 466 kts 285°
2026-04-30 13:54 66.20742 -41.58517 36019 ft 466 kts 285°
2026-04-30 13:55 66.22648 -41.73878 36024 ft 467 kts 285°
2026-04-30 13:55 66.24543 -41.89272 36049 ft 466 kts 285°
2026-04-30 13:56 66.26419 -42.04671 36077 ft 466 kts 285°
2026-04-30 13:56 66.28283 -42.20124 36053 ft 467 kts 285°
2026-04-30 13:57 66.30133 -42.35612 36069 ft 467 kts 285°
2026-04-30 13:57 66.31970 -42.51145 36080 ft 468 kts 285°
2026-04-30 13:58 66.34695 -42.74463 36092 ft 468 kts 285°
2026-04-30 13:59 66.36482 -42.89956 36093 ft 468 kts 284°
2026-04-30 13:59 66.38266 -43.05572 36109 ft 468 kts 284°
2026-04-30 14:00 66.39492 -43.16421 36105 ft 469 kts 284°
2026-04-30 14:00 66.42129 -43.39949 36126 ft 469 kts 284°
2026-04-30 14:01 66.43866 -43.55661 36120 ft 468 kts 284°
2026-04-30 14:01 66.45583 -43.71371 36123 ft 468 kts 284°
2026-04-30 14:02 66.47271 -43.86972 36153 ft 468 kts 284°
2026-04-30 14:02 66.48957 -44.02715 36159 ft 468 kts 284°
2026-04-30 14:03 66.50627 -44.18484 36164 ft 468 kts 284°
2026-04-30 14:03 66.52280 -44.34261 36161 ft 468 kts 283°
2026-04-30 14:04 66.53917 -44.50063 36168 ft 467 kts 283°
2026-04-30 14:04 66.55039 -44.60997 36174 ft 467 kts 283°
2026-04-30 14:05 66.56639 -44.76744 36177 ft 467 kts 283°
2026-04-30 14:05 66.58235 -44.92595 36209 ft 467 kts 283°
2026-04-30 14:06 66.60597 -45.16427 36148 ft 468 kts 283°
2026-04-30 14:07 66.62921 -45.40273 36182 ft 467 kts 283°
2026-04-30 14:08 66.65205 -45.64130 36182 ft 467 kts 282°
2026-04-30 14:08 66.67446 -45.87962 36177 ft 466 kts 282°
2026-04-30 14:09 66.68924 -46.03924 36181 ft 467 kts 282°
2026-04-30 14:10 66.70665 -46.22988 36186 ft 467 kts 282°
2026-04-30 14:10 66.72102 -46.38900 36173 ft 467 kts 282°
2026-04-30 14:11 66.73533 -46.54956 36178 ft 467 kts 282°
2026-04-30 14:11 66.74946 -46.71027 36176 ft 467 kts 282°
2026-04-30 14:12 66.76342 -46.87103 36137 ft 467 kts 282°
2026-04-30 14:12 66.77490 -47.00483 36172 ft 467 kts 281°
2026-04-30 14:13 66.79073 -47.19173 36174 ft 466 kts 281°
2026-04-30 14:13 66.80192 -47.32560 36191 ft 466 kts 281°
2026-04-30 14:14 66.81520 -47.48642 36188 ft 466 kts 281°
2026-04-30 14:14 66.82832 -47.64737 36181 ft 465 kts 281°
2026-04-30 14:15 66.83727 -47.75879 36215 ft 465 kts 281°
2026-04-30 14:15 66.85011 -47.91989 36223 ft 465 kts 281°
2026-04-30 14:16 66.86279 -48.08124 36210 ft 466 kts 281°
2026-04-30 14:16 66.87524 -48.24201 36209 ft 466 kts 280°
2026-04-30 14:17 66.88759 -48.40391 36213 ft 466 kts 280°
2026-04-30 14:17 66.89980 -48.56615 36208 ft 466 kts 280°
2026-04-30 14:18 66.91182 -48.72836 36188 ft 466 kts 280°
2026-04-30 14:18 66.92945 -48.97057 36185 ft 465 kts 279°
2026-04-30 14:19 66.94679 -49.21437 36179 ft 465 kts 279°
2026-04-30 14:20 66.95454 -49.32539 36161 ft 465 kts 279°
2026-04-30 14:20 66.97134 -49.56934 36132 ft 465 kts 279°
2026-04-30 14:21 66.98229 -49.73139 36123 ft 465 kts 279°
2026-04-30 14:22 66.99460 -49.97730 36116 ft 465 kts 270°
2026-04-30 14:22 66.98567 -50.22451 36287 ft 467 kts 261°
2026-04-30 14:23 66.97433 -50.38757 36654 ft 465 kts 261°
2026-04-30 14:23 66.96298 -50.54943 36888 ft 466 kts 261°
2026-04-30 14:24 66.95161 -50.71219 37037 ft 466 kts 261°
2026-04-30 14:24 66.94588 -50.79378 37159 ft 466 kts 261°
2026-04-30 14:25 66.93787 -50.90692 37332 ft 467 kts 260°
2026-04-30 14:25 66.92620 -51.07018 37617 ft 467 kts 260°
2026-04-30 14:26 66.91436 -51.23307 37877 ft 467 kts 260°
2026-04-30 14:26 66.90845 -51.31337 37927 ft 467 kts 260°
2026-04-30 14:27 66.89016 -51.55846 37977 ft 470 kts 259°
2026-04-30 14:27 66.87773 -51.72193 37988 ft 471 kts 259°
2026-04-30 14:28 66.85872 -51.96732 37992 ft 471 kts 259°
2026-04-30 14:28 66.84592 -52.12970 37995 ft 471 kts 259°
2026-04-30 14:29 66.82218 -52.42512 37985 ft 470 kts 259°
2026-04-30 14:31 66.78868 -52.82981 37987 ft 469 kts 258°
2026-04-30 14:31 66.76806 -53.07228 37984 ft 469 kts 258°
2026-04-30 14:32 66.74709 -53.31422 37983 ft 468 kts 258°
2026-04-30 14:33 66.73302 -53.47394 37989 ft 468 kts 258°
2026-04-30 14:33 66.71147 -53.71482 37966 ft 468 kts 257°
2026-04-30 14:34 66.69692 -53.87488 37980 ft 467 kts 257°
2026-04-30 14:34 66.68488 -54.00587 38016 ft 467 kts 257°
2026-04-30 14:35 66.66261 -54.24477 37994 ft 468 kts 257°
2026-04-30 14:36 66.64751 -54.40439 37992 ft 468 kts 257°
2026-04-30 14:36 66.63222 -54.56415 37999 ft 468 kts 257°
2026-04-30 14:37 66.61677 -54.72363 38000 ft 468 kts 257°
2026-04-30 14:37 66.60127 -54.88171 37993 ft 468 kts 256°
2026-04-30 14:38 66.58551 -55.04073 38000 ft 468 kts 256°
2026-04-30 14:38 66.56958 -55.19956 38015 ft 468 kts 256°
2026-04-30 14:39 66.55346 -55.35847 38037 ft 468 kts 256°
2026-04-30 14:39 66.53721 -55.51697 38017 ft 469 kts 256°
2026-04-30 14:40 66.51560 -55.72490 38016 ft 469 kts 256°
2026-04-30 14:40 66.49896 -55.88306 38017 ft 469 kts 255°
2026-04-30 14:41 66.48215 -56.04107 38009 ft 469 kts 255°
2026-04-30 14:41 66.46521 -56.19868 38027 ft 469 kts 255°
2026-04-30 14:42 66.44820 -56.35519 38026 ft 469 kts 255°
2026-04-30 14:42 66.43090 -56.51265 38025 ft 469 kts 255°
2026-04-30 14:43 66.41362 -56.66837 38090 ft 465 kts 255°
2026-04-30 14:43 66.39611 -56.82458 38053 ft 469 kts 255°
2026-04-30 14:44 66.37842 -56.98067 38019 ft 472 kts 254°
2026-04-30 14:44 66.36369 -57.10953 38033 ft 473 kts 254°
2026-04-30 14:45 66.35464 -57.18812 38137 ft 469 kts 254°
2026-04-30 14:45 66.34560 -57.26625 38066 ft 469 kts 254°
2026-04-30 14:45 66.32745 -57.42193 38053 ft 466 kts 254°
2026-04-30 14:46 66.30927 -57.57631 38046 ft 464 kts 254°
2026-04-30 14:46 66.29099 -57.73003 38056 ft 463 kts 253°
2026-04-30 14:47 66.27265 -57.88279 38055 ft 464 kts 253°
2026-04-30 14:47 66.25401 -58.03652 38065 ft 466 kts 253°
2026-04-30 14:48 66.23514 -58.19066 38055 ft 467 kts 253°
2026-04-30 14:48 66.21609 -58.34486 38062 ft 468 kts 253°
2026-04-30 14:49 66.19693 -58.49839 38064 ft 469 kts 253°
2026-04-30 14:49 66.18104 -58.62470 38062 ft 470 kts 253°
2026-04-30 14:50 66.15164 -58.85585 38071 ft 470 kts 252°
2026-04-30 14:51 66.12193 -59.08612 38067 ft 471 kts 252°
2026-04-30 14:52 66.09175 -59.31694 38073 ft 471 kts 252°
2026-04-30 14:52 66.06122 -59.54724 38073 ft 471 kts 252°
2026-04-30 14:53 66.03052 -59.77597 38077 ft 471 kts 252°
2026-04-30 14:54 66.00055 -60.08816 38074 ft 471 kts 264°
2026-04-30 14:55 65.99891 -60.29995 38053 ft 471 kts 269°
2026-04-30 14:56 65.99871 -60.62195 38080 ft 471 kts 268°
2026-04-30 14:57 65.99773 -60.86258 38077 ft 472 kts 268°
2026-04-30 14:58 65.99572 -61.18507 38080 ft 472 kts 268°
2026-04-30 14:58 65.99379 -61.42604 38096 ft 472 kts 267°
2026-04-30 15:00 65.99005 -61.79952 38077 ft 473 kts 267°
2026-04-30 15:01 65.98611 -62.12222 38075 ft 472 kts 267°
2026-04-30 15:01 65.98271 -62.36294 38077 ft 472 kts 266°
2026-04-30 15:02 65.98024 -62.52409 38070 ft 473 kts 266°
2026-04-30 15:03 65.97330 -62.92700 38064 ft 473 kts 266°
2026-04-30 15:04 65.96652 -63.27188 38070 ft 472 kts 266°
2026-04-30 15:06 65.95761 -63.67492 38056 ft 474 kts 265°
2026-04-30 15:07 65.94972 -63.99730 38073 ft 476 kts 266°
2026-04-30 15:08 65.94111 -64.32107 38051 ft 475 kts 266°
2026-04-30 15:09 65.92941 -64.72516 38065 ft 475 kts 266°
2026-04-30 15:10 65.92027 -65.01734 38058 ft 475 kts 265°
2026-04-30 15:11 65.90392 -65.50093 38071 ft 476 kts 265°
2026-04-30 15:13 65.88910 -65.90422 38075 ft 477 kts 265°
2026-04-30 15:14 65.86776 -66.43976 38083 ft 478 kts 264°
2026-04-30 15:17 65.83579 -67.16570 38072 ft 478 kts 264°
2026-04-30 15:19 65.80449 -67.80947 38238 ft 473 kts 263°
2026-04-30 17:39 58.83038 -105.91290 38234 ft 517 kts 237°
2026-04-30 17:42 58.63159 -106.43755 38244 ft 518 kts 237°
2026-04-30 17:43 58.52462 -106.71509 38248 ft 518 kts 237°
2026-04-30 17:44 58.40730 -107.01585 38251 ft 518 kts 236°
2026-04-30 17:47 58.21320 -107.50518 38266 ft 519 kts 236°
2026-04-30 17:48 58.06022 -107.88389 38272 ft 517 kts 236°
2026-04-30 17:50 57.89709 -108.28119 38273 ft 519 kts 235°
2026-04-30 17:52 57.76399 -108.60033 38153 ft 508 kts 238°
2026-04-30 17:53 57.65508 -108.85865 38263 ft 507 kts 237°
2026-04-30 17:54 57.56731 -109.06468 38260 ft 508 kts 237°
2026-04-30 17:56 57.40361 -109.44420 38246 ft 508 kts 237°
2026-04-30 17:58 57.27077 -109.74778 38229 ft 505 kts 237°
2026-04-30 18:00 57.10681 -110.11726 38227 ft 504 kts 236°
2026-04-30 18:01 56.99509 -110.36586 38230 ft 505 kts 236°
2026-04-30 18:02 56.86064 -110.66155 38232 ft 504 kts 236°
2026-04-30 18:04 56.72540 -110.95535 38123 ft 504 kts 236°
2026-04-30 18:06 56.55560 -111.31259 38071 ft 508 kts 234°
2026-04-30 18:07 56.46161 -111.50370 38177 ft 508 kts 234°
2026-04-30 18:08 56.39138 -111.64611 38234 ft 508 kts 233°
2026-04-30 18:10 56.21757 -111.99476 38233 ft 506 kts 233°
2026-04-30 18:11 56.05187 -112.32251 38241 ft 508 kts 232°
2026-04-30 18:13 55.93245 -112.55588 38230 ft 509 kts 232°
2026-04-30 18:14 55.81253 -112.78792 38221 ft 509 kts 232°
2026-04-30 18:15 55.68360 -113.03491 38087 ft 510 kts 231°
2026-04-30 18:16 55.59497 -113.20322 38112 ft 510 kts 231°
2026-04-30 18:17 55.54641 -113.29490 38112 ft 511 kts 231°
2026-04-30 18:18 55.47370 -113.43156 38080 ft 511 kts 231°
2026-04-30 18:18 55.42501 -113.52261 38123 ft 510 kts 231°
2026-04-30 18:19 55.37616 -113.61362 38123 ft 510 kts 231°
2026-04-30 18:19 55.32742 -113.70407 38132 ft 510 kts 231°
2026-04-30 18:20 55.29378 -113.76629 38124 ft 510 kts 231°
2026-04-30 18:20 55.24490 -113.85645 38128 ft 510 kts 230°
2026-04-30 18:21 55.19626 -113.94579 38148 ft 510 kts 230°
2026-04-30 18:21 55.14725 -114.03549 38151 ft 510 kts 230°
2026-04-30 18:22 55.09812 -114.12507 38139 ft 510 kts 230°
2026-04-30 18:22 55.02464 -114.25839 38139 ft 508 kts 230°
2026-04-30 18:23 54.97553 -114.34708 38144 ft 508 kts 230°
2026-04-30 18:23 54.92639 -114.43549 38143 ft 508 kts 230°
2026-04-30 18:24 54.85254 -114.56774 38146 ft 508 kts 230°
2026-04-30 18:25 54.81884 -114.62784 38117 ft 508 kts 229°
2026-04-30 18:25 54.74474 -114.75948 38132 ft 508 kts 229°
2026-04-30 18:26 54.67053 -114.89057 38132 ft 509 kts 229°
2026-04-30 18:27 54.59602 -115.02147 38123 ft 508 kts 229°
2026-04-30 18:28 54.52193 -115.15089 38131 ft 507 kts 229°
2026-04-30 18:28 54.44753 -115.28014 38142 ft 506 kts 228°
2026-04-30 18:29 54.36166 -115.42848 38154 ft 506 kts 228°
2026-04-30 18:30 54.26215 -115.59922 38144 ft 506 kts 228°
2026-04-30 18:31 54.18735 -115.72674 38134 ft 506 kts 227°
2026-04-30 18:32 54.13169 -115.79983 38168 ft 510 kts 213°
2026-04-30 18:32 54.10046 -115.82878 38161 ft 512 kts 207°
2026-04-30 18:33 54.00080 -115.89543 38163 ft 513 kts 202°
2026-04-30 18:33 53.90110 -115.96070 38171 ft 514 kts 203°
2026-04-30 18:34 53.80110 -116.02705 38173 ft 514 kts 203°
2026-04-30 18:35 53.75033 -116.06069 38174 ft 514 kts 203°
2026-04-30 18:35 53.68377 -116.10463 38190 ft 513 kts 203°
2026-04-30 18:36 53.58409 -116.17011 38190 ft 515 kts 202°
2026-04-30 18:37 53.48378 -116.23563 38191 ft 516 kts 202°
2026-04-30 18:37 53.41686 -116.27918 38198 ft 516 kts 202°
2026-04-30 18:38 53.34985 -116.32263 38205 ft 517 kts 202°
2026-04-30 18:38 53.28306 -116.36579 38196 ft 518 kts 202°
2026-04-30 18:39 53.21580 -116.40911 38194 ft 519 kts 202°
2026-04-30 18:39 53.14834 -116.45241 38194 ft 519 kts 202°
2026-04-30 18:40 53.10372 -116.48096 38207 ft 518 kts 202°
2026-04-30 18:40 53.03643 -116.52392 38205 ft 517 kts 202°
2026-04-30 18:41 52.96932 -116.56662 38320 ft 514 kts 202°
2026-04-30 18:41 52.90230 -116.60911 38216 ft 516 kts 202°
2026-04-30 18:42 52.83563 -116.65124 38197 ft 516 kts 202°
2026-04-30 18:42 52.73510 -116.71451 38236 ft 514 kts 202°
2026-04-30 18:45 52.38868 -116.93017 38308 ft 515 kts 201°
2026-04-30 18:46 52.32164 -116.97148 38330 ft 515 kts 201°
2026-04-30 18:46 52.25447 -117.01274 38330 ft 516 kts 201°
2026-04-30 18:47 52.18756 -117.05372 38330 ft 516 kts 201°
2026-04-30 18:47 52.12038 -117.09472 38339 ft 515 kts 201°
2026-04-30 18:48 52.05325 -117.13557 38342 ft 514 kts 201°
2026-04-30 18:48 51.98611 -117.17627 38346 ft 515 kts 201°
2026-04-30 18:49 51.91893 -117.21688 38343 ft 516 kts 201°
2026-04-30 18:49 51.85194 -117.25727 38336 ft 517 kts 201°
2026-04-30 18:50 51.79794 -117.28974 38323 ft 516 kts 201°
2026-04-30 18:50 51.73276 -117.33681 38310 ft 513 kts 215°
2026-04-30 18:51 51.67936 -117.41192 38308 ft 508 kts 233°
2026-04-30 18:51 51.63807 -117.50275 38303 ft 506 kts 237°
2026-04-30 18:52 51.59678 -117.59476 38312 ft 506 kts 236°
2026-04-30 18:52 51.55508 -117.68597 38309 ft 506 kts 236°
2026-04-30 18:53 51.51303 -117.77684 38321 ft 506 kts 236°
2026-04-30 18:53 51.47091 -117.86742 38315 ft 507 kts 236°
2026-04-30 18:54 51.42865 -117.95798 38293 ft 506 kts 235°
2026-04-30 18:54 51.38646 -118.04814 38299 ft 505 kts 235°
2026-04-30 18:55 51.35300 -118.11944 38303 ft 504 kts 235°
2026-04-30 18:55 51.28977 -118.25365 38289 ft 502 kts 235°
2026-04-30 18:56 51.22664 -118.38695 38291 ft 500 kts 235°
2026-04-30 18:57 51.16385 -118.51884 38289 ft 500 kts 235°
2026-04-30 18:57 51.12165 -118.60713 38284 ft 501 kts 235°
2026-04-30 18:58 51.05807 -118.73956 38261 ft 501 kts 234°
2026-04-30 18:59 50.99446 -118.87140 38265 ft 501 kts 234°
2026-04-30 19:00 50.94489 -118.97365 38547 ft 501 kts 236°
2026-04-30 19:00 50.92355 -119.01754 38429 ft 504 kts 236°
2026-04-30 19:00 50.88085 -119.10518 38324 ft 505 kts 236°
2026-04-30 19:01 50.83782 -119.19313 38325 ft 505 kts 236°
2026-04-30 19:02 50.77324 -119.32468 38306 ft 504 kts 235°
2026-04-30 19:03 50.68727 -119.49874 38318 ft 505 kts 236°
2026-04-30 19:04 50.60042 -119.67340 38309 ft 507 kts 235°
2026-04-30 19:05 50.52208 -119.82994 38309 ft 507 kts 236°
2026-04-30 19:06 50.43487 -120.00315 38312 ft 507 kts 236°
2026-04-30 19:06 50.37648 -120.11845 38311 ft 507 kts 236°
2026-04-30 19:07 50.31052 -120.24811 38320 ft 507 kts 236°
2026-04-30 19:08 50.22232 -120.42047 38327 ft 507 kts 236°
2026-04-30 19:09 50.15635 -120.54865 38333 ft 506 kts 236°
2026-04-30 19:09 50.12319 -120.61285 38341 ft 506 kts 236°
2026-04-30 19:10 50.03806 -120.77697 38325 ft 505 kts 236°
2026-04-30 19:11 49.97192 -120.90384 38334 ft 506 kts 236°
2026-04-30 19:12 49.92962 -120.99082 38325 ft 500 kts 243°
2026-04-30 19:12 49.89460 -121.08356 38315 ft 497 kts 245°
2026-04-30 19:13 49.86027 -121.17495 37495 ft 483 kts 245°
2026-04-30 19:13 49.82591 -121.26531 35205 ft 492 kts 245°
2026-04-30 19:13 49.80837 -121.31114 33941 ft 497 kts 244°
2026-04-30 19:14 49.79062 -121.35737 32615 ft 500 kts 244°
2026-04-30 19:14 49.77288 -121.40337 31674 ft 495 kts 244°
2026-04-30 19:14 49.75531 -121.44873 30939 ft 488 kts 244°
2026-04-30 19:14 49.74479 -121.47582 30522 ft 483 kts 244°
2026-04-30 19:15 49.72763 -121.52011 29589 ft 479 kts 243°
2026-04-30 19:15 49.69378 -121.60740 27940 ft 470 kts 243°
2026-04-30 19:15 49.67713 -121.65023 27272 ft 463 kts 243°
2026-04-30 19:16 49.66040 -121.69318 26560 ft 458 kts 243°
2026-04-30 19:16 49.64422 -121.73466 25814 ft 454 kts 243°
2026-04-30 19:16 49.61187 -121.81748 24412 ft 446 kts 242°
2026-04-30 19:17 49.59584 -121.85836 23716 ft 442 kts 241°
2026-04-30 19:17 49.56428 -121.93872 22254 ft 434 kts 241°
2026-04-30 19:17 49.54884 -121.97797 21598 ft 430 kts 241°
2026-04-30 19:18 49.52303 -122.04339 20526 ft 423 kts 241°
2026-04-30 19:18 49.50280 -122.09402 19718 ft 420 kts 240°
2026-04-30 19:18 49.48728 -122.13258 19493 ft 422 kts 241°
2026-04-30 19:19 49.47184 -122.17095 19324 ft 420 kts 241°
2026-04-30 19:19 49.45663 -122.20900 19048 ft 415 kts 241°
2026-04-30 19:19 49.43271 -122.26946 18051 ft 410 kts 241°
2026-04-30 19:20 49.41810 -122.30631 17422 ft 407 kts 240°
2026-04-30 19:20 49.40340 -122.34319 16846 ft 402 kts 240°
2026-04-30 19:20 49.36666 -122.40553 15408 ft 386 kts 222°
2026-04-30 19:21 49.34733 -122.43446 14649 ft 389 kts 229°
2026-04-30 19:21 49.31361 -122.49807 13598 ft 380 kts 231°
2026-04-30 19:22 49.28001 -122.55664 13222 ft 353 kts 229°
2026-04-30 19:22 49.23397 -122.63499 12733 ft 298 kts 229°
2026-04-30 19:23 49.19565 -122.70653 10045 ft 285 kts 239°
2026-04-30 19:24 49.17567 -122.75822 8229 ft 279 kts 238°
2026-04-30 19:24 49.16599 -122.78373 7372 ft 275 kts 242°
2026-04-30 19:24 49.13909 -122.82161 6317 ft 274 kts 193°
2026-04-30 19:25 49.08740 -122.79805 6079 ft 261 kts 125°
2026-04-30 19:26 49.07495 -122.74960 6035 ft 236 kts 106°
2026-04-30 19:26 49.06915 -122.70165 5335 ft 230 kts 98°
2026-04-30 19:26 49.06877 -122.67762 4652 ft 236 kts 69°
2026-04-30 19:27 49.09297 -122.64466 4040 ft 226 kts 38°
2026-04-30 19:27 49.12177 -122.62734 4030 ft 234 kts 357°
2026-04-30 19:28 49.13733 -122.63612 4031 ft 244 kts 323°
2026-04-30 19:28 49.14981 -122.68162 4059 ft 230 kts 270°
2026-04-30 19:29 49.15192 -122.72816 4069 ft 209 kts 275°
2026-04-30 19:29 49.15327 -122.74947 4081 ft 198 kts 276°
2026-04-30 19:30 49.15712 -122.81188 4100 ft 197 kts 276°
2026-04-30 19:30 49.15959 -122.85364 3990 ft 199 kts 279°
2026-04-30 19:31 49.16562 -122.89404 3758 ft 185 kts 283°
2026-04-30 19:31 49.16844 -122.91264 3709 ft 175 kts 284°
2026-04-30 19:31 49.17335 -122.94811 3170 ft 165 kts 282°
2026-04-30 19:32 49.17574 -122.96551 2832 ft 167 kts 285°
2026-04-30 19:32 49.17841 -122.98244 2440 ft 161 kts 285°
2026-04-30 19:32 49.18102 -122.99886 2140 ft 158 kts 282°
2026-04-30 19:32 49.18365 -123.01511 2055 ft 154 kts 283°
2026-04-30 19:33 49.18575 -123.03041 1939 ft 143 kts 281°
2026-04-30 19:33 49.18763 -123.04504 1616 ft 140 kts 278°
2026-04-30 19:33 49.18926 -123.05957 1283 ft 137 kts 279°
2026-04-30 19:33 49.19121 -123.07407 1064 ft 141 kts 279°
2026-04-30 19:34 49.19293 -123.08878 888 ft 141 kts 279°
2026-04-30 19:34 49.19440 -123.10348 822 ft 137 kts 277°
2026-04-30 19:34 49.19729 -123.13241 442 ft 135 kts 279°
2026-04-30 19:35 49.19900 -123.14645 276 ft 135 kts 280°
2026-04-30 19:35 49.20053 -123.16042 108 ft 132 kts 279°
2026-04-30 19:35 49.20196 -123.17384 28 ft 116 kts 279°
2026-04-30 19:35 49.20323 -123.18397 29 ft 74 kts 280°
2026-04-30 19:36 49.20391 -123.19059 27 ft 43 kts 271°
2026-04-30 19:36 49.20340 -123.19407 26 ft 29 kts 251°
2026-04-30 19:36 49.20243 -123.19550 27 ft 11 kts 99°
2026-04-30 19:37 49.20228 -123.19432 27 ft 12 kts 107°
2026-04-30 19:37 49.20213 -123.19311 27 ft 12 kts 100°
2026-04-30 19:37 49.20198 -123.19189 27 ft 12 kts 100°
2026-04-30 19:37 49.20184 -123.19069 27 ft 12 kts 100°
2026-04-30 19:38 49.20170 -123.18948 27 ft 12 kts 100°
2026-04-30 19:38 49.20156 -123.18827 27 ft 12 kts 100°
2026-04-30 19:38 49.20143 -123.18706 27 ft 12 kts 98°
2026-04-30 19:38 49.20132 -123.18584 27 ft 12 kts 98°
2026-04-30 19:39 49.20118 -123.18523 27 ft 3 kts 143°
2026-04-30 19:39 49.20098 -123.18518 27 ft 3 kts 181°
2026-04-30 19:39 49.20071 -123.18520 27 ft 7 kts 184°
2026-04-30 19:39 49.19986 -123.18539 27 ft 11 kts 188°
2026-04-30 19:40 49.19909 -123.18558 27 ft 11 kts 189°
2026-04-30 19:40 49.19832 -123.18575 26 ft 10 kts 182°
2026-04-30 19:40 49.19778 -123.18513 27 ft 10 kts 112°
2026-04-30 19:40 49.19761 -123.18406 27 ft 10 kts 100°
2026-04-30 19:41 49.19749 -123.18305 27 ft 6 kts 100°
2026-04-30 19:41 49.19755 -123.18248 27 ft 5 kts 58°
2026-04-30 19:41 49.19778 -123.18207 27 ft 5 kts 45°
2026-04-30 19:41 49.19793 -123.18185 27 ft 0 kts 42°
2026-04-30 19:42 49.19795 -123.18183 26 ft 0 kts 41°
2026-04-30 19:42 49.19798 -123.18178 27 ft 1 kts 42°
2026-04-30 19:42 49.19805 -123.18170 27 ft 0 kts 41°
2026-04-30 19:42 49.19805 -123.18169 27 ft 0 kts 41°